Location: Pea Ridge
(34.0640°N, 87.8670°W)
Time: 10:47:25
(UTC+00:00)

A-11 Canister half - Pass Details

Date: 17 December 2025
Orbit: 1526 x 1682 km, 47.3° (Epoch: 18 January)

Event Time Altitude Azimuth Distance (km) Brightness Sun altitude
Rises 20:11:09 0° 303° (WNW) 4,936 11.7 23.2°
Reaches altitude 10° 20:14:28 10° 308° (NW) 3,945 11.2 22.8°
Maximum altitude 20:24:25 57° 26° (NNE) 1,915 9.5 21.6°
Drops below altitude 10° 20:34:08 10° 103° (ESE) 3,861 10.9 20.3°
Sets 20:37:19 0° 108° (ESE) 4,826 11.4 19.8°
